Regional Weather Roundup
Issued by NWS

Home | Current Version | Previous Version | Graphics & Text | Print | Product List | Glossary On
Versions: 1 2 3 4 5 6 7 8 9 10 11 12 13 14 15 16 17 18 19 20 21 22 23 24 25 26 27 28 29 30 31 32 33 34 35 36 37 38 39 40 41 42 43 44 45 46 47 48 49 50
000
ASUS43 KFSD 231602
RWRSD

WEATHER ROUNDUP FOR SOUTH DAKOTA
NATIONAL WEATHER SERVICE SIOUX FALLS SD
1100 AM CDT WED APR 23 2014

NOTE: "FAIR" INDICATES FEW OR NO CLOUDS BELOW 12,000 FEET WITH NO
SIGNIFICANT WEATHER AND/OR OBSTRUCTIONS TO VISIBILITY.


SDZ001>005-009-010-012>017-231700-
NORTHWEST AND NORTH CENTRAL SOUTH DAKOTA

CITY           SKY/WX    TMP DP  RH WIND       PRES   REMARKS
BUFFALO          N/A     53  43  68 W24       29.42R
FAITH            N/A     53  37  54 SE22      29.48
MOBRIDGE       CLOUDY    53  37  54 SE33G41   29.53F
$$

SDZ012>016-024>037-041>051-057-063-072>074-231700-
SOUTHWEST AND SOUTH CENTRAL SOUTH DAKOTA

CITY           SKY/WX    TMP DP  RH WIND       PRES   REMARKS
RAPID CTY ARPT CLOUDY    65  41  41 N10       29.49R
PIERRE         CLOUDY    57  38  48 SE22G31   29.50F
CUSTER         CLOUDY    51  28  41 W25G45    29.58R
ELLSWORTH AFB  CLOUDY    64  40  40 N14       29.49R
PHILIP         CLOUDY    61  44  53 SE8       29.48R
PINE RIDGE     CLOUDY    60  40  47 W12       29.56R
WINNER         FAIR      66  39  37 S22G29    29.53F
$$

SDZ004>011-016>023-039-040-231700-
NORTHEAST SOUTH DAKOTA

CITY           SKY/WX    TMP DP  RH WIND       PRES   REMARKS
ABERDEEN       CLOUDY    50  40  68 SE28G44   29.70R
WATERTOWN      CLOUDY    44  37  76 SE18G31   29.79F
SISSETON         N/A     43  39  86 S31G38    29.84F
$$

SDZ017-020-022-023-036>040-048>070-231700-
SOUTHEAST SOUTH DAKOTA

CITY           SKY/WX    TMP DP  RH WIND       PRES   REMARKS
SIOUX FALLS    CLOUDY    53  35  50 SE28G43   29.77F
HURON          CLOUDY    56  34  43 SE26G41   29.70R
CHAMBERLAIN      N/A     61  39  44 S28G37    29.57F
MITCHELL       CLOUDY    58  37  45 SE35G47   29.68S
YANKTON        CLOUDY    55  39  54 SE31G41   29.71F
$$

ABBREVIATIONS USED IN REMARKS
   TC - TEMPERATURE IN CELSIUS
  WCI - WIND CHILL INDEX
   HX - HEAT INDEX
  VSB - VISIBILITY




USA.gov is the U.S. government's official web portal to all federal, state and local government web resources and services.